Location: Arbon
(43.0005°N, 0.7472°E)
Time: 01:45:27
(UTC+00:00)

Cosmos 1726 - Pass Details

Date: 07 August 2020
Orbit: 482 x 499 km, 82.5° (Epoch: 19 September)

Event Time Altitude Azimuth Distance (km) Brightness Sun altitude
Exits shadow 03:38:49 20° 217° (SW) 1,176 3.4 -12.8°
Maximum altitude 03:41:01 44° 281° (WNW) 687 2.5 -12.5°
Drops below altitude 10° 03:44:34 10° 355° (N) 1,688 5.2 -11.9°
Sets 03:46:45 0° 2° (N) 2,571 6.3 -11.6°
